Location: Bonac
(42.8765°N, 0.9753°E)
Time: 23:40:30
(UTC+00:00)

NOAA 15 - Visible Passes

Search period start: 18 April 2026 00:00
Search period end: 28 April 2026 00:00
Orbit: 794 x 809 km, 98.5° (Epoch: 18 April)

Date Brightness Start Highest point End Pass type
(mag) Time Alt. Az. Time Alt. Az. Time Alt. Az.
18 Apr 7.1 19:22:46 10° SW 19:26:55 23° W 19:31:07 10° NW visible
21 Apr 7.4 19:45:12 10° SW 19:48:09 15° W 19:51:07 10° NW visible
22 Apr 6.9 19:17:17 10° SSW 19:21:38 26° W 19:26:01 10° NW visible
25 Apr 7.4 19:39:31 10° SW 19:42:51 17° W 19:46:11 10° NW visible
